Washington, VA

6:30 PM EDT on September 24, 2017 (GMT -0400)
Ronald Reagan Washington National

Weather History for KDCA - April, 2013

Change the Weather History Date:

Tuesday, April 2, 2013

  Actual Average Record
Temperature  
Mean Temperature 45 °F 52 °F  
Max Temperature 51 °F 62 °F 89 °F (1963)
Min Temperature 39 °F 43 °F 23 °F (1907)
Degree Days  
Heating Degree Days 20 13  
Month to date heating degree days 30 26  
Since 1 July heating degree days 3495 3702  
Cooling Degree Days 0 0  
Month to date cooling degree days 0 0  
Year to date cooling degree days 0 2  
Moisture  
Dew Point 12 °F    
Average Humidity 28    
Maximum Humidity 38    
Minimum Humidity 18    
Precipitation  
Precipitation 0.00 in 0.12 in 1.79 in (2005)
Month to date precipitation T 0.23  
Year to date precipitation 7.00 9.14  
Snow  
Snow 0.00 in 0.00 in 0.50 in (1887)
Month to date snowfall 0.0 0.0  
Since 1 July snowfall 3.1 15.4  
Snow Depth 0.00 in    
Sea Level Pressure  
Sea Level Pressure 30.10 in    
Wind  
Wind Speed 12 mph (NW)    
Max Wind Speed 23 mph    
Max Gust Speed 32 mph    
Visibility 10 miles    
Events      
T = Trace of Precipitation, MM = Missing Value Source: NWS Daily Summary

Daily Weather History Graph

Daily Weather History Graph

Search for Another Location

Airport or City:

Trip Planner

Search our weather history database for the weather conditions in past years. The results will help you decide how hot, cold, wet, or windy it might be!

Date:

Astronomy

Apr. 02, 2013 Rise Set
Actual Time 6:50 AM EDT 7:32 PM EDT
Civil Twilight 6:24 AM EDT 7:59 PM EDT
Nautical Twilight 5:52 AM EDT 8:31 PM EDT
Astronomical Twilight 5:19 AM EDT 9:04 PM EDT
Moon 1:33 AM EDT (4/2) 11:41 AM EDT (4/2)
Length of Visible Light 13h 35m
Length of Day
12h 41m
Waning Gibbous, 56% of the Moon is Illuminated
Apr 2
Waning Gibbous
Apr 3
Last Quarter
Apr 10
New
Apr 18
First Quarter
Apr 25
Full

Hourly Weather History & Observations

Time (EDT) Temp. Windchill Dew Point Humidity Pressure Visibility Wind Dir Wind Speed Gust Speed Precip Events Conditions
12:52 AM 41.0 °F 35.2 °F 17.1 °F 38% 30.03 in 10.0 mi NNW 9.2 mph - N/A   Scattered Clouds
1:52 AM 41.0 °F 34.3 °F 15.1 °F 35% 30.03 in 10.0 mi NNW 11.5 mph - N/A   Clear
2:52 AM 41.0 °F 35.2 °F 12.9 °F 32% 30.03 in 10.0 mi NNW 9.2 mph - N/A   Clear
3:52 AM 41.0 °F 38.0 °F 12.9 °F 32% 30.03 in 10.0 mi WNW 4.6 mph - N/A   Clear
4:52 AM 39.9 °F 33.9 °F 12.9 °F 33% 30.04 in 10.0 mi WNW 9.2 mph - N/A   Clear
5:52 AM 39.0 °F 33.4 °F 12.9 °F 34% 30.05 in 10.0 mi WNW 8.1 mph - N/A   Clear
6:52 AM 39.0 °F 32.8 °F 14.0 °F 36% 30.08 in 10.0 mi WNW 9.2 mph - N/A   Clear
7:52 AM 41.0 °F 34.3 °F 14.0 °F 33% 30.12 in 10.0 mi West 11.5 mph - N/A   Clear
8:52 AM 43.0 °F 36.0 °F 12.0 °F 28% 30.14 in 10.0 mi West 13.8 mph 21.9 mph N/A   Clear
9:52 AM 44.1 °F 36.5 °F 10.9 °F 26% 30.14 in 10.0 mi WNW 17.3 mph 25.3 mph N/A   Partly Cloudy
10:52 AM 46.0 °F 38.5 °F 10.0 °F 23% 30.13 in 10.0 mi WNW 19.6 mph 27.6 mph N/A   Partly Cloudy
11:52 AM 48.0 °F - 12.9 °F 24% 30.12 in 10.0 mi Variable 6.9 mph 18.4 mph N/A   Scattered Clouds
12:52 PM 48.2 °F - 12.2 °F 24% 30.11 in 10.0 mi NW 17.3 mph 21.9 mph N/A   Partly Cloudy
1:52 PM 51.1 °F - 12.0 °F 21% 30.10 in 10.0 mi NW 15.0 mph 23.0 mph N/A   Partly Cloudy
2:52 PM 51.1 °F - 10.9 °F 20% 30.08 in 10.0 mi WNW 15.0 mph 23.0 mph N/A   Partly Cloudy
3:52 PM 51.1 °F - 10.9 °F 20% 30.07 in 10.0 mi WNW 15.0 mph 24.2 mph N/A   Partly Cloudy
4:52 PM 50.0 °F - 9.0 °F 19% 30.08 in 10.0 mi NW 18.4 mph 25.3 mph N/A   Partly Cloudy
5:52 PM 50.0 °F - 9.0 °F 19% 30.09 in 10.0 mi NNW 12.7 mph 28.8 mph N/A   Partly Cloudy
6:52 PM 48.0 °F - 8.1 °F 20% 30.11 in 10.0 mi NW 12.7 mph - N/A   Partly Cloudy
7:52 PM 46.0 °F 41.9 °F 9.0 °F 22% 30.12 in 10.0 mi NNW 8.1 mph - N/A   Partly Cloudy
8:52 PM 44.1 °F 39.0 °F 10.9 °F 26% 30.15 in 10.0 mi NNW 9.2 mph - N/A   Partly Cloudy
9:52 PM 43.0 °F 37.2 °F 12.0 °F 28% 30.16 in 10.0 mi North 10.4 mph - N/A   Clear
10:52 PM 42.1 °F 35.2 °F 12.0 °F 29% 30.17 in 10.0 mi North 12.7 mph - N/A   Clear
11:52 PM 42.8 °F 35.4 °F 10.4 °F 27% 30.19 in 10.0 mi NNW 15.0 mph 26.5 mph N/A   Clear